Regional Weather Roundup
Issued by NWS Charleston, WV

Home | Current Version | Previous Version | Graphics & Text | Print | Product List | Glossary On
Versions: 1 2 3 4 5 6 7 8 9 10 11 12 13 14 15 16 17 18 19 20 21 22 23 24 25 26 27 28 29 30 31 32 33 34 35 36 37 38 39 40 41 42 43 44 45 46 47 48 49 50
000
ASUS41 KRLX 031510
RWRRLX
West Virginia Regional Weather Roundup
National Weather Service Charleston WV
1100 AM EDT THU SEP 03 2015

Note: "fair" indicates few or no clouds below 12,000 feet with no
significant weather and/or obstructions to visibility.

WVZ003-031600-
Northern Panhandle of West Virginia

CITY           SKY/WX    TMP DP  RH WIND       PRES   REMARKS
WHEELING       MOSUNNY   77  68  73 CALM      30.02S
$$

WVZ009-031600-
Northwest West Virginia

CITY           SKY/WX    TMP DP  RH WIND       PRES   REMARKS
PARKERSBURG    PTSUNNY   74  69  85 VRB6      30.07R
$$

WVZ006-031600-
Western West Virginia

CITY           SKY/WX    TMP DP  RH WIND       PRES   REMARKS
HUNTINGTON     CLOUDY    82  68  62 VRB3      30.04S
$$

WVZ015-031600-
West Central West Virginia

CITY           SKY/WX    TMP DP  RH WIND       PRES   REMARKS
CHARLESTON     PTSUNNY   75  67  76 CALM      30.06S
$$

WVZ022-031-031600-
North Central West Virginia

CITY           SKY/WX    TMP DP  RH WIND       PRES   REMARKS
CLARKSBURG     MOSUNNY   76  68  76 S3        30.05S
MORGANTOWN     PTSUNNY   75  65  70 SW5       30.06S
$$

WVZ025-035-042-045-031600-
Southern West Virginia

CITY           SKY/WX    TMP DP  RH WIND       PRES   REMARKS
BECKLEY        CLOUDY    75  64  68 N10       30.13R
LOGAN            N/A     75  68  78 CALM      30.09S
BLUEFIELD      PTSUNNY   76  64  66 VRB6      30.15R
LEWISBURG      SUNNY     71  69  92 CALM      30.11S
$$

WVZ047-031600-
Northern Mountains of West Virginia

CITY           SKY/WX    TMP DP  RH WIND       PRES   REMARKS
ELKINS         PTSUNNY   75  64  68 CALM      30.09F
$$

WVZ052-031600-
Eastern Panhandle of West Virginia

CITY           SKY/WX    TMP DP  RH WIND       PRES   REMARKS
MARTINSBURG    SUNNY     83  66  56 CALM      29.97F
PETERSBURG     SUNNY     79  70  74 E3        30.02S
$$


USA.gov is the U.S. government's official web portal to all federal, state and local government web resources and services.